Back to Top
Banner_Quays_at_Mast_2020.jpeg
previous arrow
next arrow

Port Arrivals Report (AIS)

This report is generated from collected AIS (Automated Identification System) signals from vessels entering port.

IMO MMSI Class Flag Vessel Name Vessel type Nav Status Destination Call Sign Latitude Longitude Speed (kts) Course (T) Draught (m) LOA (m) Beam (m) Timestamp
0 250001733 B IE MERIDIAN Pleasure craft - EIHE7 51.6872 -8.49881 5.4 354.6 0 15 3 2026-05-02 15:15:29
0 250006539 B IE ARTFUL DODJER SAILING. - EI-ZJ-3 51.6905 -8.50121 5.8 348.9 0 11 4 2026-05-02 15:13:42
0 250006035 B IE VALFREYA SAILING. - EI-XB-6 51.6871 -8.49603 4.3 334.2 0 10 3 2026-05-02 15:13:36
0 250014804 B IE KIR ROYALE Pleasure craft - EIA3270 51.6877 -8.50134 12.8 334.3 0 0 0 2026-05-02 14:18:25
0 250001462 B IE SWEET DREAMS SAILING. - EIFI5 51.6878 -8.49768 4.7 342 0 11 4 2026-05-02 13:49:06
0 250014182 A IE LADY CATHERINE PASSENGER. - EIA2647 51.6883 -8.49752 10.2 6.7 0 0 0 2026-05-02 13:15:40
0 250014774 B IE HARPY DREDGING / UNDERWATER Ops. - EIA3240 51.6871 -8.50128 8.3 351.2 0 13 4 2026-05-02 13:05:18
0 232016609 B GB RNLI LIFEBOAT B-909 SAR. - 51.6884 -8.49907 21.9 341 0 8 2 2026-05-02 10:01:52
0 232016609 B GB RNLI LIFEBOAT B-909 SAR. - 51.6885 -8.4998 5.9 358 0 8 2 2026-05-02 07:13:10
0 235085229 B GB WOODSTOCK-HI SAILING. - MENZ2 51.6872 -8.49892 6.6 351.2 0 11 4 2026-05-02 05:53:48
0 250006649 B IE ALCHEMIST'S GOLD SAILING. - EI ZU 6 51.6873 -8.49863 5 13.9 0 10 2 2026-05-01 17:43:18
0 232058621 B GB FELICITY Pleasure craft - MRJX8 51.688 -8.49782 7.1 343.8 0 10 3 2026-05-01 17:00:57
0 250001361 B IE ANDROMEDA SAILING. - EI5039 51.6887 -8.50064 7 345.1 0 13 4 2026-05-01 14:44:28
0 235097316 B GB LYRA MAY Pleasure craft - 2GGZ4 51.6874 -8.49944 4.8 348.4 0 13 3 2026-05-01 14:07:00
0 250103600 A IE CISEMAIR FISHING. Undefined FISHING CH16 CH71 EI7396 51.6872 -8.49752 4.7 359.1 4.7 0 0 2026-05-01 14:03:10
8808939 250000527 A IE F/V RACHEL JAY S448 FISHING. - FISHING EI8447 51.6885 -8.49839 8.5 352 0 26 8 2026-04-30 06:27:19
0 250001702 A IE ADRIANNE FISHING. Undefined CO EIGX7 51.6879 -8.49974 7.5 347.8 3.5 21 7 2026-04-29 08:04:27
9068598 250000608 A IE HANNAH J FISHING. Undefined EI8715 51.6893 -8.49926 7.8 336 0 20 6 2026-04-29 05:52:04
0 250000954 A IE JENNY M FISHING. Power Driven vessel pushing ahead or alongside EIBN6 51.6878 -8.49888 7.5 351.1 0 19 5 2026-04-29 00:23:05
0 232016609 B GB RNLI LIFEBOAT B-909 SAR. - 51.692 -8.50812 22.6 332.5 0 8 2 2026-04-28 19:43:56